Weather History for Nakika, MS

Change the Weather History Date:

Monday, January 6, 2014

  Actual Average Record
Temperature  
Mean Temperature 51 °F -  
Max Temperature 60 °F - - ()
Min Temperature 42 °F - - ()
Degree Days  
Heating Degree Days 14    
Growing Degree Days 1 (Base 50)    
Moisture  
Dew Point 38 °F    
Average Humidity 68    
Maximum Humidity 82    
Minimum Humidity 54    
Precipitation  
Precipitation 0.00 in - - ()
Sea Level Pressure  
Sea Level Pressure 30.30 in    
Wind  
Wind Speed 15 mph (NW)    
Max Wind Speed 25 mph    
Max Gust Speed 41 mph    
Visibility 9 miles    
Events      
T = Trace of Precipitation, MM = Missing Value Source: NWS Daily Summary

Daily Weather History Graph

Daily Weather History Graph

Search for Another Location

Airport:

Trip Planner

Search our weather history database for the weather conditions in past years. The results will help you decide how hot, cold, wet, or windy it might be!

Date:

Astronomy

Jan. 06, 2014 Rise Set
Actual Time 6:46 AM CST 5:11 PM CST
Civil Twilight 6:21 AM CST 5:37 PM CST
Nautical Twilight 5:51 AM CST 6:06 PM CST
Astronomical Twilight 5:23 AM CST 6:35 PM CST
Moon 10:33 AM CST (1/6) 11:10 PM CST (1/6)
Length of Visible Light 11h 16m
Length of Day
10h 24m
Waxing Crescent, 35% of the Moon is Illuminated
Jan 6
Waxing Crescent
Jan 7
First Quarter
Jan 15
Full
Jan 23
Last Quarter
Jan 30
New

Hourly Weather History & Observations

Time (CST) Temp. Windchill Dew Point Humidity Pressure Visibility Wind Dir Wind Speed Gust Speed Precip Events Conditions
12:15 AM 60.8 °F - 55.4 °F 82% 29.98 in 8.0 mi NW 23.0 mph 33.4 mph N/A   Overcast
12:35 AM 60.8 °F - 53.6 °F 77% 29.99 in 9.0 mi NW 23.0 mph 34.5 mph N/A   Overcast
12:55 AM 59.0 °F - 51.8 °F 77% 30.00 in 8.0 mi NW 24.2 mph 34.5 mph N/A   Overcast
1:15 AM 59.0 °F - 51.8 °F 77% 30.01 in 8.0 mi NW 24.2 mph 34.5 mph N/A   Overcast
1:35 AM 57.2 °F - 50.0 °F 77% 30.02 in 8.0 mi WNW 25.3 mph 34.5 mph N/A   Overcast
1:55 AM 57.2 °F - 50.0 °F 77% 30.03 in 9.0 mi WNW 18.4 mph 32.2 mph N/A   Overcast
2:15 AM 57.2 °F - 48.2 °F 72% 30.05 in 8.0 mi WNW 12.7 mph 27.6 mph N/A   Overcast
2:35 AM 55.4 °F - 48.2 °F 77% 30.05 in 8.0 mi WNW 13.8 mph 32.2 mph N/A   Overcast
2:55 AM 55.4 °F - 48.2 °F 77% 30.07 in 6.0 mi WNW 9.2 mph 34.5 mph N/A   Haze
3:15 AM 53.6 °F - 48.2 °F 82% 30.08 in 7.0 mi WNW 10.4 mph 35.7 mph N/A   Overcast
3:35 AM 53.6 °F - 46.4 °F 77% 30.09 in 8.0 mi WNW 17.3 mph 27.6 mph N/A   Overcast
3:55 AM 53.6 °F - 46.4 °F 77% 30.09 in 7.0 mi WNW 16.1 mph 29.9 mph N/A   Overcast
4:15 AM 53.6 °F - 46.4 °F 77% 30.10 in 7.0 mi NW 12.7 mph 36.8 mph N/A   Overcast
4:35 AM 53.6 °F - 46.4 °F 77% 30.12 in 7.0 mi WNW 13.8 mph 34.5 mph N/A   Overcast
4:55 AM 51.8 °F - 44.6 °F 76% 30.13 in 7.0 mi WNW 11.5 mph 23.0 mph N/A   Overcast
5:15 AM 50.0 °F - 42.8 °F 76% 30.15 in 8.0 mi WNW 15.0 mph 29.9 mph N/A   Overcast
5:35 AM 50.0 °F - 42.8 °F 76% 30.17 in 8.0 mi NW 18.4 mph 36.8 mph N/A   Overcast
5:55 AM 50.0 °F - 42.8 °F 76% 30.18 in 7.0 mi WNW 16.1 mph 27.6 mph N/A   Overcast
6:15 AM 50.0 °F - 42.8 °F 76% 30.19 in - WNW 12.7 mph 29.9 mph N/A   Overcast
6:35 AM 50.0 °F - 42.8 °F 76% 30.21 in 7.0 mi WNW 10.4 mph 27.6 mph N/A   Overcast
6:55 AM 50.0 °F - 41.0 °F 71% 30.22 in 8.0 mi WNW 18.4 mph 29.9 mph N/A   Overcast
7:15 AM 48.2 °F - 41.0 °F 76% 30.24 in 7.0 mi WNW 16.1 mph 29.9 mph N/A   Overcast
7:35 AM 48.2 °F - 41.0 °F 76% 30.26 in 7.0 mi WNW 13.8 mph 29.9 mph N/A   Overcast
7:55 AM 48.2 °F - 39.2 °F 71% 30.28 in 8.0 mi WNW 9.2 mph 19.6 mph N/A   Overcast
8:15 AM 48.2 °F - 39.2 °F 71% 30.29 in 7.0 mi WNW 10.4 mph 20.7 mph N/A   Overcast
8:35 AM 48.2 °F - 39.2 °F 71% 30.29 in 7.0 mi NW 11.5 mph 21.9 mph N/A   Overcast
8:55 AM 48.2 °F - 39.2 °F 71% 30.30 in 8.0 mi NW 11.5 mph - N/A   Overcast
9:15 AM 48.2 °F - 39.2 °F 71% 30.32 in 8.0 mi Variable 8.1 mph 41.4 mph N/A   Overcast
9:35 AM 48.2 °F - 39.2 °F 71% 30.33 in 8.0 mi NW 10.4 mph 19.6 mph N/A   Overcast
9:55 AM 48.2 °F - 37.4 °F 66% 30.34 in 9.0 mi NNW 9.2 mph 25.3 mph N/A   Mostly Cloudy
10:15 AM 50.0 °F - 39.2 °F 66% 30.34 in 9.0 mi Variable 9.2 mph 19.6 mph N/A   Mostly Cloudy
10:35 AM 50.0 °F - 37.4 °F 62% 30.35 in 8.0 mi NW 10.4 mph 17.3 mph N/A   Mostly Cloudy
10:55 AM 51.8 °F - 39.2 °F 62% 30.35 in 8.0 mi NW 10.4 mph 24.2 mph N/A   Mostly Cloudy
11:15 AM 50.0 °F - 39.2 °F 66% 30.34 in 8.0 mi WNW 12.7 mph 20.7 mph N/A   Overcast
11:35 AM 50.0 °F - 37.4 °F 62% 30.34 in 9.0 mi NW 9.2 mph 23.0 mph N/A   Overcast
11:55 AM 50.0 °F - 37.4 °F 62% 30.33 in 9.0 mi NW 9.2 mph 23.0 mph N/A   Overcast
12:15 PM 48.2 °F - 37.4 °F 66% 30.33 in 9.0 mi NW 9.2 mph 20.7 mph N/A   Mostly Cloudy
12:35 PM 50.0 °F - 33.8 °F 54% 30.34 in 9.0 mi NW 8.1 mph 16.1 mph N/A   Scattered Clouds
12:55 PM 48.2 °F - 37.4 °F 66% 30.34 in 9.0 mi NW 10.4 mph 16.1 mph N/A   Mostly Cloudy
1:15 PM 48.2 °F - 37.4 °F 66% 30.34 in 9.0 mi WNW 12.7 mph 23.0 mph N/A   Mostly Cloudy
1:35 PM 46.4 °F 40.7 °F 37.4 °F 71% 30.35 in 9.0 mi NW 12.7 mph 19.6 mph N/A   Mostly Cloudy
1:55 PM 46.4 °F 40.7 °F 35.6 °F 66% 30.35 in 9.0 mi WNW 12.7 mph 19.6 mph N/A   Scattered Clouds
2:15 PM 46.4 °F 41.5 °F 35.6 °F 66% 30.36 in 10.0 mi NW 10.4 mph 20.7 mph N/A   Scattered Clouds
2:35 PM 46.4 °F 41.9 °F 35.6 °F 66% 30.36 in 9.0 mi NW 9.2 mph 19.6 mph N/A   Scattered Clouds
2:55 PM 48.2 °F - 35.6 °F 62% 30.36 in 10.0 mi NW 11.5 mph 24.2 mph N/A   Scattered Clouds
3:15 PM 48.2 °F - 35.6 °F 62% 30.37 in 9.0 mi WNW 13.8 mph 24.2 mph N/A   Scattered Clouds
3:35 PM 48.2 °F - 35.6 °F 62% 30.37 in 9.0 mi NW 10.4 mph - N/A   Scattered Clouds
3:55 PM 48.2 °F - 35.6 °F 62% 30.38 in 10.0 mi WNW 17.3 mph 26.5 mph N/A   Partly Cloudy
4:15 PM 48.2 °F - 35.6 °F 62% 30.38 in 10.0 mi WNW 15.0 mph 27.6 mph N/A   Partly Cloudy
4:35 PM 48.2 °F - 35.6 °F 62% 30.37 in 9.0 mi WNW 20.7 mph 32.2 mph N/A   Scattered Clouds
4:55 PM 48.2 °F - 33.8 °F 58% 30.38 in 9.0 mi WNW 15.0 mph 26.5 mph N/A   Partly Cloudy
5:15 PM 48.2 °F - 32.0 °F 54% 30.39 in 9.0 mi NW 15.0 mph 28.8 mph N/A   Partly Cloudy
5:35 PM 46.4 °F 40.4 °F 33.8 °F 62% 30.40 in 10.0 mi NW 13.8 mph 27.6 mph N/A   Partly Cloudy
5:55 PM 46.4 °F 41.9 °F 33.8 °F 62% 30.41 in 10.0 mi NW 9.2 mph 19.6 mph N/A   Scattered Clouds
6:15 PM 44.6 °F 38.8 °F 32.0 °F 61% 30.43 in 9.0 mi NW 11.5 mph 33.4 mph N/A   Mostly Cloudy
6:35 PM 44.6 °F 37.4 °F 33.8 °F 66% 30.45 in 10.0 mi WNW 16.1 mph 27.6 mph N/A   Mostly Cloudy
6:55 PM 44.6 °F 37.2 °F 33.8 °F 66% 30.44 in 10.0 mi WNW 17.3 mph 27.6 mph N/A   Mostly Cloudy
7:15 PM 44.6 °F 39.2 °F 32.0 °F 61% 30.46 in 10.0 mi WNW 10.4 mph 25.3 mph N/A   Mostly Cloudy
7:35 PM 44.6 °F 38.8 °F 33.8 °F 66% 30.46 in 10.0 mi Variable 11.5 mph 21.9 mph N/A   Mostly Cloudy
7:55 PM 44.6 °F 39.2 °F 33.8 °F 66% 30.46 in 10.0 mi NW 10.4 mph 18.4 mph N/A   Mostly Cloudy
8:15 PM 44.6 °F 39.7 °F 32.0 °F 61% 30.47 in 10.0 mi NW 9.2 mph 19.6 mph N/A   Mostly Cloudy
8:35 PM 44.6 °F 39.2 °F 32.0 °F 61% 30.47 in 10.0 mi WNW 10.4 mph 26.5 mph N/A   Mostly Cloudy
8:55 PM 44.6 °F 40.2 °F 30.2 °F 57% 30.48 in 10.0 mi NW 8.1 mph 26.5 mph N/A   Mostly Cloudy
9:15 PM 44.6 °F 38.4 °F 32.0 °F 61% 30.47 in 10.0 mi NNW 12.7 mph 23.0 mph N/A   Mostly Cloudy
9:35 PM 42.8 °F 37.5 °F 30.2 °F 61% 30.47 in 10.0 mi NW 9.2 mph 24.2 mph N/A   Mostly Cloudy
9:55 PM 42.8 °F 37.5 °F 30.2 °F 61% 30.47 in 10.0 mi NW 9.2 mph 29.9 mph N/A   Mostly Cloudy
10:15 PM 42.8 °F 37.0 °F 30.2 °F 61% 30.48 in 10.0 mi North 10.4 mph 21.9 mph N/A   Mostly Cloudy
10:35 PM 42.8 °F 36.6 °F 28.4 °F 57% 30.48 in 10.0 mi WNW 11.5 mph 20.7 mph N/A   Mostly Cloudy
10:55 PM 42.8 °F 37.5 °F 30.2 °F 61% 30.49 in 10.0 mi NW 9.2 mph 21.9 mph N/A   Mostly Cloudy
11:15 PM 42.8 °F 37.5 °F 28.4 °F 57% 30.49 in 10.0 mi NNW 9.2 mph 24.2 mph N/A   Mostly Cloudy
11:35 PM 42.8 °F 38.6 °F 28.4 °F 57% 30.49 in 10.0 mi Variable 6.9 mph 24.2 mph N/A   Overcast
11:55 PM 42.8 °F 38.0 °F 28.4 °F 57% 30.49 in 10.0 mi NW 8.1 mph 23.0 mph N/A   Overcast